TimeMST,TemperatureF,Dew PointF,Humidity,Sea Level PressureIn,VisibilityMPH,Wind Direction,Wind SpeedMPH,Gust SpeedMPH,PrecipitationIn,Events,Conditions,WindDirDegrees,DateUTC
12:15 AM,21.2,19.4,93,29.81,10.0,North,10.4,-,N/A,,Clear,360,2013-03-09 07:15:00
12:35 AM,21.2,19.4,93,29.81,10.0,North,11.5,-,N/A,,Clear,350,2013-03-09 07:35:00
12:55 AM,21.2,19.4,93,29.82,10.0,North,11.5,-,N/A,,Clear,350,2013-03-09 07:55:00
1:15 AM,21.2,21.2,100,29.82,10.0,North,13.8,-,N/A,,Clear,350,2013-03-09 08:15:00
1:35 AM,21.2,19.4,93,29.82,10.0,North,13.8,-,N/A,,Clear,350,2013-03-09 08:35:00
1:55 AM,21.2,19.4,93,29.82,10.0,North,15.0,-,N/A,,Clear,350,2013-03-09 08:55:00
2:15 AM,21.2,19.4,93,29.82,10.0,North,17.3,-,N/A,,Clear,360,2013-03-09 09:15:00
2:35 AM,21.2,19.4,93,29.81,10.0,North,16.1,-,N/A,,Clear,10,2013-03-09 09:35:00
2:55 AM,19.4,17.6,93,29.82,10.0,North,8.1,-,N/A,,Clear,350,2013-03-09 09:55:00
3:15 AM,19.4,19.4,100,29.82,10.0,North,6.9,-,N/A,,Clear,350,2013-03-09 10:15:00
3:35 AM,21.2,19.4,93,29.82,10.0,NNW,6.9,-,N/A,,Clear,340,2013-03-09 10:35:00
3:55 AM,21.2,19.4,93,29.82,10.0,North,9.2,-,N/A,,Clear,350,2013-03-09 10:55:00
4:15 AM,19.4,19.4,100,29.83,10.0,North,13.8,-,N/A,,Clear,350,2013-03-09 11:15:00
4:35 AM,19.4,17.6,93,29.83,10.0,North,20.7,-,N/A,,Clear,360,2013-03-09 11:35:00
4:55 AM,19.4,17.6,93,29.84,10.0,North,18.4,-,N/A,,Clear,360,2013-03-09 11:55:00
5:15 AM,19.4,17.6,93,29.85,10.0,North,12.7,-,N/A,,Clear,360,2013-03-09 12:15:00
5:35 AM,17.6,15.8,93,29.85,10.0,North,13.8,-,N/A,,Clear,350,2013-03-09 12:35:00
5:55 AM,17.6,15.8,93,29.86,10.0,North,17.3,-,N/A,,Clear,360,2013-03-09 12:55:00
6:35 AM,17.6,15.8,93,29.87,10.0,North,13.8,-,N/A,,Clear,360,2013-03-09 13:35:00
6:51 AM,17.6,15.8,93,29.87,10.0,North,15.0,-,N/A,,Clear,360,2013-03-09 13:51:00
7:51 AM,19.4,15.8,86,29.88,10.0,North,20.7,-,N/A,,Clear,350,2013-03-09 14:51:00
8:51 AM,21.2,17.6,86,29.92,10.0,North,17.3,-,N/A,,Clear,360,2013-03-09 15:51:00
9:54 AM,28.4,15.8,59,29.92,10.0,North,15.0,-,N/A,,Clear,10,2013-03-09 16:54:00
10:53 AM,30.2,15.8,55,29.93,10.0,North,12.7,-,N/A,,Clear,10,2013-03-09 17:53:00
11:51 AM,33.8,28.4,81,29.94,10.0,NNE,17.3,-,N/A,,Clear,20,2013-03-09 18:51:00
12:51 PM,33.8,14.0,44,29.97,10.0,North,23.0,-,N/A,,Clear,360,2013-03-09 19:51:00
1:55 PM,35.6,8.6,33,29.97,10.0,NNE,16.1,27.6,N/A,,Clear,20,2013-03-09 20:55:00
2:51 PM,35.6,10.4,35,29.99,10.0,NNE,15.0,23.0,N/A,,Clear,20,2013-03-09 21:51:00
3:51 PM,35.6,14.0,41,30.01,10.0,North,15.0,20.7,N/A,,Clear,10,2013-03-09 22:51:00
4:51 PM,35.6,15.8,44,30.03,10.0,North,16.1,-,N/A,,Clear,350,2013-03-09 23:51:00
5:51 PM,33.8,15.8,48,30.07,10.0,NNW,5.8,-,N/A,,Clear,340,2013-03-10 00:51:00
6:53 PM,33.8,10.4,38,30.11,10.0,NW,8.1,-,N/A,,Clear,310,2013-03-10 01:53:00
7:54 PM,30.2,8.6,40,30.13,10.0,NNW,11.5,20.7,N/A,,Clear,340,2013-03-10 02:54:00
8:51 PM,28.4,12.2,51,30.17,10.0,North,5.8,-,N/A,,Clear,10,2013-03-10 03:51:00
9:15 PM,28.4,12.2,51,30.17,10.0,NW,8.1,-,N/A,,Clear,320,2013-03-10 04:15:00
9:35 PM,28.4,12.2,51,30.19,10.0,North,11.5,18.4,N/A,,Clear,360,2013-03-10 04:35:00
9:55 PM,24.8,12.2,59,30.19,10.0,NNE,11.5,-,N/A,,Clear,30,2013-03-10 04:55:00
10:15 PM,23.0,12.2,63,30.20,10.0,NNE,8.1,-,N/A,,Clear,20,2013-03-10 05:15:00
10:35 PM,24.8,12.2,59,30.20,10.0,WNW,5.8,-,N/A,,Clear,300,2013-03-10 05:35:00
10:55 PM,26.6,10.4,51,30.21,10.0,Calm,Calm,-,N/A,,Clear,0,2013-03-10 05:55:00
11:15 PM,23.0,10.4,59,30.21,10.0,Calm,Calm,-,N/A,,Clear,0,2013-03-10 06:15:00
11:35 PM,21.2,10.4,63,30.21,10.0,North,5.8,-,N/A,,Clear,360,2013-03-10 06:35:00
11:56 PM,21.2,10.4,63,30.22,10.0,Calm,Calm,-,N/A,,Clear,0,2013-03-10 06:56:00